Location: Passo di Treia
(43.2833°N, 13.3333°E)
Time: 08:56:46
(UTC+00:00)

Cosmos 1992 Rocket - Pass Details

Date: 09 December 2019
Orbit: 758 x 766 km, 74.0° (Epoch: 18 January)

Event Time Altitude Azimuth Distance (km) Brightness Sun altitude
Rises 16:47:27 0° 339° (NNW) 3,233 7.3 -13.4°
Reaches altitude 10° 16:49:50 10° 339° (NNW) 2,305 6.5 -13.8°
Maximum altitude 16:55:04 87° 251° (WSW) 771 4.0 -14.8°
Drops below altitude 10° 17:00:17 10° 163° (SSE) 2,294 6.5 -15.7°
Sets 17:02:39 0° 163° (SSE) 3,217 7.2 -16.1°
